Weather History for KMCB - November, 2011

Change the Weather History Date:

Monday, November 28, 2011

  Actual Average Record
Temperature  
Mean Temperature 38 °F -  
Max Temperature 44 °F 63 °F 81 °F (1954)
Min Temperature 32 °F 40 °F 25 °F (1959)
Degree Days  
Heating Degree Days 27    
Moisture  
Dew Point 37 °F    
Average Humidity 91    
Maximum Humidity 100    
Minimum Humidity 76    
Precipitation  
Precipitation 0.09 in - - ()
Sea Level Pressure  
Sea Level Pressure 30.01 in    
Wind  
Wind Speed 8 mph (NW)    
Max Wind Speed 12 mph    
Max Gust Speed 24 mph    
Visibility 9 miles    
Events Rain    
Averages and records for this station are not official NWS values.
T = Trace of Precipitation, MM = Missing Value Source: NWS Daily Summary

Daily Weather History Graph

Daily Weather History Graph

Search for Another Location

Airport or City:

Trip Planner

Search our weather history database for the weather conditions in past years. The results will help you decide how hot, cold, wet, or windy it might be!

Date:

Astronomy

Nov. 28, 2011 Rise Set
Actual Time 6:40 AM CST 4:59 PM CST
Civil Twilight 6:13 AM CST 5:25 PM CST
Nautical Twilight 5:43 AM CST 5:55 PM CST
Astronomical Twilight 5:14 AM CST 6:24 PM CST
Moon 9:51 AM CST (11/28) 8:43 PM CST (11/28)
Length of Visible Light 11h 11m
Length of Day
10h 19m
Waxing Crescent, 16% of the Moon is Illuminated
Nov 28
Waxing Crescent
Dec 2
First Quarter
Dec 10
Full
Dec 17
Last Quarter
Dec 24
New

Hourly Weather History & Observations

Time (CST) Temp. Windchill Dew Point Humidity Pressure Visibility Wind Dir Wind Speed Gust Speed Precip Events Conditions
12:44 AM 41.0 °F 35.8 °F 39.2 °F 93% 30.04 in 7.0 mi WNW 8.1 mph - N/A   Overcast
12:53 AM 41.0 °F 35.2 °F 39.9 °F 96% 30.04 in 6.0 mi NW 9.2 mph - N/A   Overcast
1:53 AM 41.0 °F 34.7 °F 39.0 °F 93% 30.03 in 10.0 mi NW 10.4 mph - N/A   Overcast
2:37 AM 41.0 °F 35.8 °F 39.2 °F 93% 30.02 in 9.0 mi NW 8.1 mph - 0.00 in Rain Light Rain
2:53 AM 41.0 °F 37.1 °F 39.0 °F 93% 30.01 in 10.0 mi WNW 5.8 mph - 0.00 in Rain Light Rain
3:00 AM 41.0 °F 37.1 °F 39.2 °F 93% 30.02 in 10.0 mi WNW 5.8 mph - 0.00 in   Overcast
3:11 AM 41.0 °F 38.0 °F 39.2 °F 93% 30.01 in 9.0 mi WNW 4.6 mph - 0.00 in Rain Light Rain
3:31 AM 41.0 °F 36.4 °F 39.2 °F 93% 30.01 in 10.0 mi NW 6.9 mph - 0.00 in Rain Light Rain
3:53 AM 41.0 °F 34.7 °F 39.0 °F 93% 30.01 in 10.0 mi NW 10.4 mph - 0.01 in Rain Light Rain
4:20 AM 39.2 °F 34.2 °F 39.2 °F 100% 30.01 in 9.0 mi NW 6.9 mph - 0.00 in Rain Light Rain
4:28 AM 41.0 °F 36.4 °F 39.2 °F 93% 30.01 in 10.0 mi NW 6.9 mph - 0.01 in Rain Light Rain
4:53 AM 41.0 °F 36.4 °F 39.0 °F 93% 30.01 in 10.0 mi WNW 6.9 mph - 0.01 in Rain Light Rain
5:10 AM 39.2 °F 35.0 °F 37.4 °F 93% 30.01 in 10.0 mi WNW 5.8 mph - 0.01 in Rain Light Rain
5:53 AM 39.9 °F 34.5 °F 37.9 °F 93% 30.01 in 10.0 mi WNW 8.1 mph - 0.01 in Rain Light Rain
6:47 AM 39.2 °F 33.6 °F 37.4 °F 93% 30.01 in 10.0 mi NW 8.1 mph - 0.01 in   Overcast
6:53 AM 39.9 °F 35.1 °F 37.0 °F 89% 30.01 in 10.0 mi NW 6.9 mph - 0.01 in   Overcast
6:59 AM 39.2 °F 34.2 °F 37.4 °F 93% 30.01 in 10.0 mi NW 6.9 mph - N/A   Overcast
7:28 AM 39.2 °F 33.6 °F 37.4 °F 93% 30.02 in 10.0 mi NW 8.1 mph - N/A   Overcast
7:48 AM 39.2 °F 33.0 °F 37.4 °F 93% 30.02 in 10.0 mi NW 9.2 mph - N/A   Overcast
7:53 AM 39.0 °F 34.0 °F 37.0 °F 93% 30.02 in 10.0 mi NW 6.9 mph - N/A   Overcast
8:03 AM 39.2 °F 35.9 °F 37.4 °F 93% 30.02 in 10.0 mi WNW 4.6 mph - N/A   Overcast
8:39 AM 39.2 °F 32.5 °F 37.4 °F 93% 30.02 in 9.0 mi NW 10.4 mph - N/A   Overcast
8:53 AM 39.9 °F 33.9 °F 37.0 °F 89% 30.02 in 10.0 mi NNW 9.2 mph - N/A   Overcast
9:12 AM 39.2 °F 33.0 °F 37.4 °F 93% 30.03 in 10.0 mi NW 9.2 mph - N/A   Overcast
9:26 AM 39.2 °F 33.6 °F 37.4 °F 93% 30.03 in 10.0 mi NW 8.1 mph - N/A   Overcast
9:53 AM 41.0 °F 37.1 °F 37.0 °F 86% 30.02 in 10.0 mi Variable 5.8 mph - N/A   Overcast
10:18 AM 41.0 °F 34.7 °F 35.6 °F 81% 30.02 in 10.0 mi WNW 10.4 mph - N/A   Overcast
10:45 AM 37.4 °F 29.8 °F 33.8 °F 87% 30.02 in 2.5 mi NW 11.5 mph 24.2 mph 0.02 in Rain Rain
10:51 AM 37.4 °F 30.3 °F 35.6 °F 93% 30.02 in 3.0 mi NW 10.4 mph - 0.03 in Rain Light Rain
10:53 AM 39.0 °F 32.8 °F 36.0 °F 89% 30.02 in 3.0 mi NW 9.2 mph - 0.03 in Rain Light Rain
11:53 AM 39.9 °F 35.8 °F 37.9 °F 93% 29.99 in 10.0 mi WNW 5.8 mph - 0.01 in   Overcast
12:41 PM 41.0 °F 35.2 °F 37.4 °F 87% 29.97 in 10.0 mi NW 9.2 mph - 0.01 in   Overcast
12:53 PM 42.1 °F 37.1 °F 37.0 °F 82% 29.97 in 10.0 mi NW 8.1 mph - 0.01 in   Overcast
1:03 PM 42.8 °F 38.0 °F 37.4 °F 81% 29.97 in 10.0 mi NW 8.1 mph - N/A   Overcast
1:53 PM 44.1 °F 38.1 °F 37.0 °F 76% 29.96 in 10.0 mi WNW 11.5 mph - 0.00 in   Overcast
2:53 PM 39.9 °F 32.9 °F 36.0 °F 86% 29.97 in 10.0 mi NW 11.5 mph - 0.00 in Rain Light Rain
3:20 PM 39.2 °F 32.5 °F 35.6 °F 87% 29.97 in 10.0 mi NW 10.4 mph - 0.00 in   Overcast
3:42 PM 39.2 °F 32.5 °F 35.6 °F 87% 29.98 in 10.0 mi NW 10.4 mph - 0.00 in   Overcast
3:53 PM 39.0 °F 32.8 °F 35.1 °F 86% 29.99 in 10.0 mi NW 9.2 mph - 0.00 in   Overcast
4:53 PM 39.0 °F 34.8 °F 36.0 °F 89% 29.99 in 10.0 mi NW 5.8 mph - N/A   Overcast
6:53 PM 39.0 °F 34.0 °F 34.0 °F 82% 30.02 in 10.0 mi NW 6.9 mph - N/A   Overcast
7:53 PM 37.0 °F 34.5 °F 32.0 °F 82% 30.02 in 10.0 mi NW 3.5 mph - N/A   Partly Cloudy
8:53 PM 34.0 °F - 32.0 °F 92% 30.02 in 10.0 mi Calm Calm - N/A   Clear
9:53 PM 32.0 °F - 32.0 °F 100% 30.02 in 9.0 mi Calm Calm - N/A   Clear
10:53 PM 32.0 °F - 30.9 °F 96% 30.02 in 10.0 mi Calm Calm - N/A   Clear
11:53 PM 32.0 °F - 30.9 °F 96% 30.00 in 10.0 mi Calm Calm - N/A   Clear